Location: Poughquag
(41.6090°N, 73.6820°W)
Time: 08:38:00
(UTC-05:00)

Altair - Pass Details

Date: 30 November 2023
Orbit: 1501 x 1682 km, 47.2° (Epoch: 02 March)

Event Time Altitude Azimuth Distance (km) Brightness Sun altitude
Rises 16:20:23 0° 296° (WNW) 4,657 10.6 0.0°
Reaches altitude 10° 16:23:38 10° 290° (WNW) 3,662 10.2 -0.5°
Maximum altitude 16:31:59 41° 224° (SW) 2,055 9.0 -1.9°
Drops below altitude 10° 16:40:21 10° 158° (SSE) 3,665 9.6 -3.3°
Sets 16:43:36 0° 151° (SSE) 4,660 10.0 -3.8°
